Regional Weather Roundup
Issued by NWS Nashville, TN

Home | Current Version | Previous Version | Text Only | Print | Product List | Glossary On
Versions: 1 2 3 4 5 6 7 8 9 10 11 12 13 14 15 16 17 18 19 20 21 22 23 24 25 26 27 28 29 30 31 32 33 34 35 36 37 38 39 40 41 42 43 44 45 46 47 48 49 50
000
ASUS44 KOHX 050610
RWROHX
MIDDLE TENNESSEE HOURLY WEATHER ROUNDUP
NATIONAL WEATHER SERVICE NASHVILLE TN
100 AM CDT SUN JUL 05 2015

NOTE: "FAIR" INDICATES FEW OR NO CLOUDS BELOW 12,000 FEET WITH
NO SIGNIFICANT WEATHER AND/OR OBSTRUCTIONS TO VISIBILITY.

* THESE REPORTS ARE NOT UNDER NWS QUALITY CONTROL AND MAY NOT
  REPORT WEATHER SUCH AS PRECIPITATION AND FOG.


TNZ005>011-023>034-057-059-062>066-078-080-050700
...NORTHERN MIDDLE TENNESSEE...

CITY           SKY/WX    TMP DP  RH WIND       PRES   REMARKS
CLARKSVILLE    CLOUDY    72  69  90 W3        30.02S
CROSSVILLE     HVY RAIN  69  66  90 VRB6G20   30.08R VSB 1
DICKSON          N/A     66  66 100 CALM      30.03S
NASHVILLE      LGT RAIN  69  69 100 CALM      30.02S FOG
PORTLAND       CLOUDY   N/A N/A N/A CALM      30.02R
ROCKWOOD       CLOUDY    69  69 100 SE6       30.08  VSB 1/2
SMYRNA         RAIN      68  66  94 E3        30.03S FOG
SPARTA           N/A     68  68 100 E9G41     30.03S
$$
TNZ056-058-060-061-075>077-079-093>097-050700
...SOUTHERN MIDDLE TENNESSEE...

CITY           SKY/WX    TMP DP  RH WIND       PRES   REMARKS
COLUMBIA       CLOUDY    66  66 100 VRB3      30.02R
MCMINNVILLE    MOCLDY    68  68 100 CALM      30.03F
SHELBYVILLE    CLOUDY    72  72 100 S3          N/A
TULLAHOMA      CLOUDY    66  66 100 CALM      30.04S
WINCHESTER     CLOUDY    68  66  94 CALM      30.04S
$$


...KEY TO REMARKS...
VSB - VISIBILITY IN MILES
WCI - WIND CHILL INDEX
HX  - HEAT INDEX




USA.gov is the U.S. government's official web portal to all federal, state and local government web resources and services.